• In Belarus
  • List of Countries
  • For 7 days
  • Water Temperature
  • Satellite Maps
  • Weather Map
  • Weather Widgets
  • user-avatar
    Login

    Hourly Weather Przylogi

    Today, 21 February, Thursday

    Time Temperature Precipitation Wind Pressure Humidity
    00:00 +1°C° 0 mm 3 mps 741 mmHg 89%
    01:00 +1°C° 0 mm 3 mps 741 mmHg 92%
    02:00 +1°C° 0 mm 3 mps 741 mmHg 93%
    03:00 0°C° 0 mm 3 mps 741 mmHg 93%
    04:00 0°C° 0 mm 3 mps 741 mmHg 94%
    05:00 +1°C° 0 mm 3 mps 741 mmHg 94%
    06:00 +1°C° 0 mm 3 mps 741 mmHg 94%
    07:00 +1°C° 0 mm 3 mps 741 mmHg 93%
    08:00 +1°C° 0 mm 4 mps 741 mmHg 90%
    09:00 +3°C° 0 mm 4 mps 741 mmHg 86%
    10:00 +3°C° 0 mm 5 mps 742 mmHg 83%
    11:00 +5°C° 0 mm 5 mps 741 mmHg 78%
    12:00 +5°C° 0 mm 5 mps 741 mmHg 72%
    13:00 +6°C° 0 mm 5 mps 741 mmHg 67%
    14:00 +6°C° 0.3 mm 5 mps 741 mmHg 71%
    15:00 +5°C° 0.3 mm 5 mps 740 mmHg 75%
    16:00 +5°C° 0.3 mm 5 mps 740 mmHg 80%
    17:00 +3°C° 0.4 mm 5 mps 740 mmHg 81%
    18:00 +3°C° 0.4 mm 5 mps 740 mmHg 82%
    19:00 +3°C° 0.4 mm 5 mps 739 mmHg 83%
    20:00 +3°C° 0.3 mm 5 mps 739 mmHg 85%
    21:00 +3°C° 0.3 mm 5 mps 739 mmHg 86%
    22:00 +3°C° 0.3 mm 5 mps 739 mmHg 87%
    23:00 +3°C° 0.9 mm 5 mps 738 mmHg 89%

    Tomorrow, 22 February, Friday

    Time Temperature Precipitation Wind Pressure Humidity
    00:00 +3°C° 0.9 mm 5 mps 738 mmHg 91%
    01:00 +3°C° 0.9 mm 5 mps 738 mmHg 92%
    02:00 +3°C° 0.4 mm 5 mps 738 mmHg 93%
    03:00 +3°C° 0.4 mm 5 mps 738 mmHg 93%
    04:00 +3°C° 0.4 mm 5 mps 738 mmHg 93%
    05:00 +1°C° 0.2 mm 5 mps 739 mmHg 90%
    06:00 -2°C° 0.2 mm 6 mps 740 mmHg 86%
    07:00 -4°C° 0.2 mm 7 mps 741 mmHg 82%
    08:00 -4°C° 0 mm 6 mps 743 mmHg 76%
    09:00 -4°C° 0 mm 6 mps 744 mmHg 71%
    10:00 -4°C° 0 mm 6 mps 746 mmHg 65%
    11:00 -4°C° 0 mm 6 mps 747 mmHg 59%
    12:00 -2°C° 0 mm 5 mps 747 mmHg 53%
    13:00 -2°C° 0 mm 5 mps 748 mmHg 47%
    14:00 -4°C° 0 mm 5 mps 749 mmHg 47%
    15:00 -4°C° 0 mm 5 mps 749 mmHg 48%
    16:00 -5°C° 0 mm 5 mps 749 mmHg 48%
    17:00 -5°C° 0 mm 5 mps 750 mmHg 49%
    18:00 -6°C° 0 mm 5 mps 750 mmHg 50%
    19:00 -6°C° 0 mm 5 mps 751 mmHg 51%
    20:00 -7°C° 0 mm 5 mps 752 mmHg 49%
    21:00 -7°C° 0 mm 4 mps 752 mmHg 47%
    22:00 -7°C° 0 mm 4 mps 753 mmHg 44%
    23:00 -7°C° 0 mm 4 mps 753 mmHg 42%

    Day after tomorrow, 23 February, Saturday

    Time Temperature Precipitation Wind Pressure Humidity
    00:00 -7°C° 0 mm 4 mps 753 mmHg 40%
    01:00 -6°C° 0 mm 3 mps 753 mmHg 39%
    02:00 -6°C° 0 mm 3 mps 753 mmHg 39%
    03:00 -6°C° 0 mm 3 mps 753 mmHg 39%
    04:00 -7°C° 0 mm 3 mps 753 mmHg 39%
    05:00 -7°C° 0 mm 3 mps 754 mmHg 40%
    06:00 -7°C° 0 mm 3 mps 754 mmHg 41%
    07:00 -6°C° 0 mm 2 mps 754 mmHg 42%
    08:00 -6°C° 0 mm 3 mps 755 mmHg 39%
    09:00 -6°C° 0 mm 3 mps 755 mmHg 36%
    10:00 -5°C° 0 mm 3 mps 755 mmHg 34%
    11:00 -4°C° 0 mm 2 mps 755 mmHg 31%
    12:00 -3°C° 0 mm 2 mps 755 mmHg 29%
    13:00 -2°C° 0 mm 2 mps 754 mmHg 26%
    14:00 -2°C° 0 mm 2 mps 754 mmHg 27%
    15:00 -2°C° 0 mm 2 mps 754 mmHg 27%
    16:00 -2°C° 0 mm 2 mps 754 mmHg 28%
    17:00 -3°C° 0 mm 2 mps 754 mmHg 31%
    18:00 -1°C° 0 mm 1 mps 754 mmHg 33%
    19:00 -2°C° 0 mm 1 mps 754 mmHg 36%
    20:00 -2°C° 0 mm 1 mps 754 mmHg 36%
    21:00 -3°C° 0 mm 0 mps 754 mmHg 37%
    22:00 -3°C° 0 mm 0 mps 754 mmHg 37%
    23:00 -3°C° 0 mm 0 mps 754 mmHg 36%

    24 February, Sunday

    Time Temperature Precipitation Wind Pressure Humidity
    00:00 -3°C° 0 mm 0 mps 754 mmHg 36%
    01:00 -2°C° 0 mm 1 mps 753 mmHg 36%
    02:00 -2°C° 0 mm 1 mps 753 mmHg 35%
    03:00 -2°C° 0 mm 1 mps 753 mmHg 35%
    04:00 -4°C° 0 mm 2 mps 752 mmHg 34%
    05:00 -4°C° 0 mm 2 mps 752 mmHg 34%
    06:00 -4°C° 0 mm 2 mps 752 mmHg 34%
    07:00 -4°C° 0 mm 2 mps 752 mmHg 34%
    08:00 -3°C° 0 mm 2 mps 751 mmHg 31%
    09:00 -2°C° 0 mm 2 mps 751 mmHg 29%
    10:00 -1°C° 0 mm 3 mps 751 mmHg 26%
    11:00 0°C° 0 mm 3 mps 751 mmHg 27%
    12:00 0°C° 0 mm 3 mps 750 mmHg 27%
    13:00 +1°C° 0 mm 3 mps 750 mmHg 28%
    14:00 0°C° 0 mm 3 mps 749 mmHg 31%
    15:00 0°C° 0 mm 3 mps 749 mmHg 35%
    16:00 0°C° 0 mm 3 mps 748 mmHg 38%
    17:00 0°C° 0 mm 3 mps 748 mmHg 42%
    18:00 0°C° 0 mm 3 mps 748 mmHg 46%
    19:00 0°C° 0 mm 3 mps 748 mmHg 50%
    20:00 -1°C° 0.2 mm 4 mps 748 mmHg 55%
    21:00 -1°C° 0.2 mm 4 mps 747 mmHg 60%
    22:00 -1°C° 0.2 mm 4 mps 747 mmHg 65%
    23:00 -1°C° 0.1 mm 4 mps 747 mmHg 70%

    25 February, Monday

    Time Temperature Precipitation Wind Pressure Humidity
    00:00 -1°C° 0.1 mm 4 mps 747 mmHg 74%
    01:00 -1°C° 0.1 mm 4 mps 746 mmHg 79%
    02:00 -1°C° 0.1 mm 4 mps 746 mmHg 83%
    03:00 -1°C° 0.1 mm 4 mps 746 mmHg 88%
    04:00 0°C° 0.1 mm 3 mps 746 mmHg 92%
    05:00 -1°C° 0.1 mm 4 mps 747 mmHg 93%
    06:00 -1°C° 0.1 mm 4 mps 747 mmHg 95%
    07:00 0°C° 0.1 mm 5 mps 747 mmHg 96%
    08:00 0°C° 0 mm 5 mps 748 mmHg 91%
    09:00 0°C° 0 mm 5 mps 748 mmHg 86%
    10:00 0°C° 0 mm 5 mps 749 mmHg 82%
    11:00 +1°C° 0 mm 5 mps 749 mmHg 76%
    12:00 +2°C° 0 mm 5 mps 749 mmHg 71%
    13:00 +3°C° 0 mm 5 mps 749 mmHg 66%
    14:00 +3°C° 0 mm 5 mps 749 mmHg 66%
    15:00 +3°C° 0 mm 4 mps 749 mmHg 67%
    16:00 +3°C° 0 mm 4 mps 749 mmHg 67%
    17:00 +2°C° 0 mm 3 mps 749 mmHg 71%
    18:00 +1°C° 0 mm 3 mps 749 mmHg 75%
    19:00 0°C° 0 mm 3 mps 749 mmHg 79%
    20:00 0°C° 0 mm 3 mps 749 mmHg 81%
    21:00 +1°C° 0 mm 2 mps 750 mmHg 82%
    22:00 -1°C° 0 mm 2 mps 750 mmHg 84%
    23:00 -1°C° 0 mm 2 mps 749 mmHg 84%

    26 February, Tuesday

    Time Temperature Precipitation Wind Pressure Humidity
    00:00 -1°C° 0 mm 2 mps 749 mmHg 84%
    01:00 -1°C° 0 mm 2 mps 748 mmHg 84%
    02:00 -1°C° 0 mm 3 mps 747 mmHg 81%
    03:00 -1°C° 0 mm 4 mps 747 mmHg 79%
    04:00 -1°C° 0 mm 5 mps 746 mmHg 76%
    05:00 -1°C° 0 mm 5 mps 746 mmHg 77%
    06:00 -1°C° 0 mm 5 mps 745 mmHg 77%
    07:00 -1°C° 0 mm 5 mps 745 mmHg 77%
    08:00 0°C° 0 mm 5 mps 745 mmHg 77%
    09:00 +1°C° 0 mm 5 mps 744 mmHg 77%
    10:00 +2°C° 0 mm 5 mps 744 mmHg 76%
    11:00 +3°C° 0 mm 5 mps 743 mmHg 74%
    12:00 +5°C° 0 mm 5 mps 742 mmHg 72%
    13:00 +6°C° 0 mm 5 mps 742 mmHg 71%
    14:00 +5°C° 0 mm 6 mps 741 mmHg 71%
    15:00 +5°C° 0 mm 6 mps 741 mmHg 71%
    16:00 +4°C° 0 mm 6 mps 740 mmHg 71%
    17:00 +5°C° 0 mm 5 mps 740 mmHg 74%
    18:00 +3°C° 0 mm 5 mps 740 mmHg 77%
    19:00 +3°C° 0 mm 5 mps 740 mmHg 81%
    20:00 +3°C° 0 mm 5 mps 740 mmHg 81%
    21:00 +3°C° 0 mm 5 mps 740 mmHg 82%
    22:00 +3°C° 0 mm 5 mps 740 mmHg 83%
    23:00 +3°C° 0 mm 5 mps 740 mmHg 86%
    Show more